Lapse_Rate
6.7 6.2 6.7 7.2 6.8 8.1 8.2 8.5 8.7 8.9 8.2 8.3 9.2 9.2 7.6 7.0 8.1 9.1 9.4 9.1 9.0 7.9 6.7 6.9 8.9 9.3 8.9 7.0 5.4 3.8 7.0 6.3 8.4 7.8 6.7 7.4 6.9 6.6 6.5 6.4 6.4 6.5 6.5 6.3 6.4 6.1 6.1
7.9 8.4 8.5 8.9 8.9 8.9 9.1 9.0 9.1 9.4 8.4 8.6 9.3 9.3 9.2 9.2 8.2 8.7 9.2 9.1 7.9 6.6 6.8 8.9 9.5 9.5 8.3 6.5 4.5 6.3 7.1 6.9 6.4 6.2 7.9 7.0 7.2 7.2 6.3 6.5 6.5 6.2 6.4 6.4 6.2 6.3 6.2
8.7 8.6 8.4 8.6 9.1 9.2 8.9 8.7 9.3 8.9 8.6 9.1 9.3 9.3 9.3 8.9 9.2 8.7 7.1 5.6 5.4 5.1 5.6 8.7 8.9 8.9 7.9 5.8 6.3 7.2 7.8 7.9 7.6 7.0 7.0 8.4 7.1 7.1 6.7 6.5 6.7 6.5 6.5 6.5 6.5 6.4 6.4
8.1 8.2 8.4 9.3 8.9 8.5 8.4 8.8 8.9 8.6 8.8 9.3 9.3 9.1 9.3 9.2 8.9 7.5 6.7 5.7 4.4 4.4 6.7 6.4 8.7 8.7 6.5 6.6 8.1 8.2 7.8 7.3 7.9 7.8 7.0 7.7 7.7 7.2 7.1 7.2 6.5 6.5 6.5 6.5 6.5 6.5 6.5
8.4 8.1 9.2 9.0 8.7 8.6 9.2 9.2 8.7 8.9 9.3 9.3 9.3 9.4 9.3 9.1 7.5 7.6 7.2 6.8 5.0 5.8 6.1 6.7 7.0 7.9 6.7 8.9 7.5 7.9 8.3 8.1 8.1 8.0 7.5 8.5 7.1 6.9 7.0 6.5 6.5 6.5 6.5 6.5 6.5 6.5 6.5
8.6 8.5 9.1 8.6 8.9 8.9 8.7 8.9 8.9 9.3 9.4 9.3 9.3 9.3 9.0 8.2 6.9 7.2 7.8 7.4 6.6 5.7 5.0 8.0 8.7 6.5 7.6 7.1 8.0 7.7 7.6 8.1 7.3 7.2 7.1 6.6 5.6 6.5 6.5 6.5 6.5 6.5 6.5 6.5 6.5 6.5 6.5
8.5 8.6 8.6 9.0 8.4 9.0 9.2 9.4 9.5 9.3 9.3 9.2 9.3 9.3 7.8 6.9 6.9 7.2 8.4 5.4 6.7 4.6 6.3 5.5 6.9 7.2 6.8 7.6 7.2 7.7 7.9 7.4 6.8 7.1 6.5 6.5 6.5 6.5 6.5 6.5 6.5 6.5 6.5 6.5 6.5 6.5 6.5
9.4 8.4 8.3 8.4 9.0 9.0 9.4 9.4 9.3 9.4 9.4 9.3 9.2 8.5 8.7 7.2 6.9 7.8 7.3 6.8 7.6 7.8 6.5 6.6 5.9 6.8 7.2 7.9 6.9 7.1 7.6 6.1 6.4 6.5 6.5 6.5 6.5 6.5 6.5 6.5 6.5 6.5 6.5 6.5 6.5 6.5 6.5
8.7 8.5 9.3 9.4 9.4 9.5 9.3 9.2 9.3 9.4 9.4 8.9 7.9 7.5 7.9 7.4 6.8 6.3 6.7 6.8 7.9 7.7 6.3 6.6 7.3 7.0 6.9 7.0 6.5 6.9 7.0 5.9 6.5 6.5 6.5 6.5 6.5 6.5 6.5 6.5 6.5 6.5 6.5 6.5 6.5 6.5 6.5
8.9 9.4 9.4 9.5 9.5 9.4 9.4 9.4 9.5 9.4 9.4 8.4 7.3 7.6 7.4 7.7 6.2 6.5 6.8 7.3 7.4 7.8 6.5 6.5 6.6 7.0 7.6 6.7 6.5 7.5 6.1 6.4 6.4 6.5 6.5 6.5 6.5 6.5 6.5 6.5 6.5 6.5 6.5 6.5 6.5 6.5 6.5
9.3 9.2 9.4 9.2 9.0 9.4 9.4 9.5 9.5 9.5 9.2 8.0 7.2 7.6 7.5 7.6 5.9 6.4 7.0 6.9 7.1 6.4 6.5 6.5 6.6 7.8 7.6 6.6 6.4 6.7 6.3 6.1 6.5 6.5 6.5 6.5 6.5 6.5 6.5 6.5 6.5 6.5 6.5 6.5 6.5 6.5 6.5
8.8 8.6 9.3 9.4 9.2 8.9 9.4 9.2 9.3 9.5 9.1 7.6 7.2 7.3 7.8 6.1 4.8 6.4 6.8 6.4 5.3 6.5 6.5 6.5 6.6 6.5 6.5 6.6 6.6 6.7 5.7 6.3 6.8 6.5 6.5 6.5 6.6 6.5 6.5 6.5 6.5 6.5 6.5 6.5 6.5 6.5 6.5
8.6 8.6 9.1 9.4 9.3 9.2 9.3 9.4 9.4 9.4 8.9 7.4 7.0 7.4 7.6 7.8 5.9 7.4 6.4 4.9 6.5 6.5 6.5 6.5 6.5 6.5 6.5 6.5 6.5 6.5 6.5 6.5 6.5 6.5 6.5 6.5 6.5 6.5 6.5 6.5 6.5 6.5 6.5 6.5 6.5 6.5 6.5
8.0 8.2 8.8 9.1 9.0 9.2 9.3 9.3 9.3 9.5 9.0 7.6 6.9 7.7 6.9 7.6 7.9 6.5 4.3 6.3 6.5 6.5 6.5 6.5 6.5 6.5 6.5 6.5 6.5 6.5 6.5 6.5 6.5 6.5 6.5 6.5 6.5 6.5 6.5 6.5 6.5 6.5 6.5 6.5 6.5 6.5 6.5
7.8 8.9 9.1 8.5 9.1 9.4 9.4 9.3 9.4 9.3 8.7 7.6 6.7 4.3 4.8 6.3 8.0 5.3 4.3 6.5 6.5 6.5 6.5 6.5 6.5 6.5 6.5 6.5 6.5 6.5 6.5 6.5 6.5 6.5 6.5 6.5 6.5 6.5 6.5 6.5 6.5 6.5 6.5 6.5 6.5 6.5 6.5
9.1 9.2 9.4 9.4 9.4 9.5 9.4 9.5 9.3 9.2 8.7 7.6 5.1 4.2 5.5 7.6 7.0 3.9 5.8 6.5 6.5 6.1 6.5 6.5 6.5 6.5 6.5 6.5 6.5 6.5 6.5 6.5 6.5 6.5 6.4 6.5 6.5 6.5 6.5 6.5 6.5 6.5 6.5 6.5 6.5 6.5 6.5
7.9 7.9 8.4 9.3 9.5 9.4 9.3 9.2 9.2 9.2 9.0 7.5 3.4 5.0 5.3 6.9 4.1 3.2 6.5 6.5 6.5 6.7 6.6 6.5 6.5 6.5 6.5 6.5 6.5 6.5 6.5 6.5 6.5 6.5 6.5 6.5 6.5 6.5 6.5 6.5 6.5 6.5 6.5 6.5 6.5 6.5 6.5
7.0 8.1 9.3 9.5 9.3 9.2 9.1 9.3 9.3 9.2 9.1 6.1 4.5 6.2 5.3 5.5 5.2 5.1 6.5 6.5 6.9 6.4 6.5 6.5 6.5 6.5 6.5 6.5 6.5 6.5 6.5 6.5 6.1 5.8 6.5 6.5 6.5 6.5 6.5 6.5 6.5 6.5 6.5 6.5 6.5 6.5 6.5
6.9 8.2 9.4 9.4 9.4 9.4 9.1 9.3 9.2 9.2 9.1 4.7 3.1 5.1 5.0 5.0 6.5 6.5 6.3 6.5 6.5 6.5 6.5 6.5 6.5 6.5 6.5 6.5 6.5 6.5 6.5 6.5 6.3 6.5 6.5 6.5 6.5 6.5 6.5 6.5 6.5 6.5 6.5 6.5 6.5 6.5 6.5
7.1 9.2 9.5 9.5 9.4 9.2 9.1 9.2 9.2 9.3 8.8 4.6 3.6 6.5 4.8 4.2 4.9 5.5 6.5 6.5 6.5 6.4 6.4 6.6 6.5 6.4 6.5 6.5 6.5 6.5 6.5 6.5 6.5 6.5 7.1 6.4 6.5 6.5 6.5 6.5 6.5 6.5 6.5 6.5 6.5 6.5 6.5
7.5 8.3 9.4 9.4 9.5 9.5 8.8 9.3 9.5 9.2 8.6 4.5 3.3 4.9 5.8 6.5 6.3 6.3 6.5 6.5 6.5 6.5 6.3 6.3 6.5 6.5 6.5 6.5 6.5 6.5 6.5 6.5 6.5 6.8 6.5 6.5 6.5 6.5 6.5 6.5 6.5 6.5 6.5 6.5 6.5 6.5 6.5
7.2 8.1 9.3 9.5 9.4 9.2 9.4 9.5 9.6 9.5 8.6 5.1 2.8 4.0 4.6 4.4 5.4 6.4 6.5 6.5 6.5 6.5 6.5 6.5 6.5 6.5 6.5 6.5 6.5 6.5 6.5 6.5 6.5 6.5 6.5 6.5 6.5 6.5 6.5 6.5 6.5 6.5 6.5 6.5 6.5 6.5 6.5
6.8 8.7 9.2 9.4 9.4 9.5 9.5 9.5 9.5 9.4 8.5 6.9 5.8 5.7 5.7 5.0 5.9 6.5 6.5 6.5 6.5 6.5 6.2 6.5 6.4 6.5 6.5 6.5 6.5 6.5 6.5 6.4 6.5 6.5 6.5 6.5 6.5 6.5 6.5 6.5 6.5 6.5 6.5 6.5 6.5 6.5 6.5
7.2 9.1 9.3 9.4 9.5 9.4 9.5 9.5 9.5 9.4 9.3 5.7 5.5 6.3 6.4 6.5 6.5 6.5 6.5 6.6 6.5 6.5 6.5 6.2 6.0 6.4 6.1 6.5 5.8 5.7 5.0 5.7 6.2 6.5 6.4 6.5 6.5 6.5 6.5 6.5 6.5 6.5 6.5 6.5 6.5 6.5 6.5
7.5 8.3 9.3 9.4 9.3 9.4 9.5 9.5 9.5 9.5 9.6 5.8 5.8 6.4 6.3 6.5 5.7 6.5 6.4 6.5 6.4 5.6 6.3 6.2 6.4 6.4 5.2 5.5 6.5 6.5 6.5 6.5 6.5 6.5 6.5 6.5 6.5 6.5 6.5 6.5 6.5 6.5 6.5 6.5 6.5 6.5 6.5
7.2 8.2 9.3 9.3 9.4 9.4 9.4 9.4 9.5 9.5 9.4 6.8 5.9 5.7 6.4 6.6 6.3 6.1 5.0 4.9 6.5 6.5 6.5 6.2 6.4 5.3 5.9 6.6 6.5 6.5 6.5 6.5 6.5 6.5 6.5 6.5 6.5 6.5 6.5 6.5 6.5 6.5 6.5 6.8 6.5 6.5 6.5
7.1 8.2 8.9 8.5 9.4 9.4 9.4 9.5 9.4 9.4 9.4 7.7 5.7 6.9 7.0 6.0 4.4 5.1 4.8 5.8 6.1 6.0 6.5 4.8 5.5 5.3 5.4 6.5 6.5 6.5 6.5 6.5 6.5 6.5 6.5 6.5 6.5 6.5 6.5 6.5 6.5 6.5 6.6 6.7 6.5 6.5 6.7
7.4 8.4 7.7 8.8 9.1 9.1 9.1 9.4 9.4 9.4 9.4 7.5 5.7 7.6 7.3 3.9 5.2 6.7 7.0 4.5 6.6 3.7 6.5 4.1 5.6 5.3 5.7 6.5 6.5 6.5 6.5 6.5 6.5 6.5 6.5 6.5 6.5 6.5 6.5 6.5 6.5 6.7 6.6 6.5 6.6 7.0 7.2
7.9 7.8 8.6 8.4 8.5 8.8 8.8 9.4 9.4 9.4 9.4 8.2 4.7 6.3 6.8 7.0 4.5 5.8 5.9 6.3 6.7 6.4 7.0 3.2 3.5 4.7 5.5 6.5 6.5 6.5 6.5 6.5 6.5 6.5 6.5 6.5 6.5 6.5 6.5 6.5 6.6 7.1 6.9 7.4 7.2 7.0 7.2
Wind_Speed
12 12 13 14 15 16 16 18 20 20 20 21 23 26 27 29 29 29 30 30 30 31 31 30 26 21 6 6 11 17 20 25 11 6 11 14 17 16 20 12 17 27 14 14 19 19 13
11 12 13 14 15 16 17 18 21 21 21 22 25 25 27 28 30 32 32 32 33 33 30 27 25 14 6 10 6 17 18 15 16 10 13 12 10 15 12 23 22 5 24 26 16 16 11
11 12 13 15 15 15 16 17 21 21 21 24 26 26 28 30 32 33 34 35 33 32 32 26 15 7 9 16 6 23 18 11 11 13 9 14 17 19 9 19 21 25 19 13 29 27 16
10 12 12 14 14 14 15 19 19 20 22 26 27 27 30 30 31 34 37 36 38 36 29 11 15 5 6 10 5 18 15 8 11 9 7 13 15 14 25 17 20 18 26 24 35 22 25
11 12 13 14 17 15 18 18 18 20 24 25 27 29 31 32 33 35 34 36 38 28 21 28 2 4 6 4 17 16 10 14 14 13 14 15 9 15 12 16 20 18 25 36 30 22 8
11 12 12 14 16 16 17 19 21 23 24 25 26 28 31 32 34 35 34 35 27 10 19 4 4 6 1 13 16 19 8 15 11 15 11 6 6 12 16 14 27 31 27 24 20 11 16
10 12 12 14 15 16 18 20 21 21 24 26 28 29 31 33 34 34 23 4 6 7 13 2 16 5 13 14 13 10 14 8 6 7 7 9 10 18 29 27 23 22 24 22 27 11 13
11 11 13 15 16 17 19 19 21 24 25 26 28 29 31 33 36 22 10 5 8 6 9 15 15 6 11 6 11 14 10 6 4 14 13 5 14 18 21 22 23 27 27 21 16 9 19
9 12 13 13 14 17 18 20 22 23 25 28 29 31 32 31 28 8 6 7 9 6 3 9 6 0 5 4 6 17 4 3 8 14 10 11 16 23 18 20 20 27 27 25 13 8 17
10 11 12 13 15 16 19 21 23 25 27 29 30 31 33 30 6 7 4 12 15 3 2 2 4 3 8 12 10 11 7 6 6 10 17 13 12 14 21 19 18 21 23 23 22 9 14
9 11 12 13 13 16 17 20 23 25 27 29 31 32 29 20 4 3 8 15 13 2 5 6 10 7 17 7 10 5 4 5 7 10 4 13 21 20 20 21 21 20 24 18 14 14 13
9 10 11 12 14 15 17 18 22 25 29 31 33 33 27 7 3 5 17 17 3 4 4 3 8 13 19 13 12 8 5 3 7 10 13 17 19 17 15 20 22 22 20 19 15 16 14
8 9 11 12 13 15 18 21 22 25 28 32 34 31 15 2 3 16 13 4 4 4 8 12 14 16 17 14 16 14 15 5 3 8 19 15 17 2 8 21 13 11 11 8 12 11 12
7 9 10 12 14 16 18 19 21 24 27 32 35 25 13 3 10 14 4 5 6 10 6 14 14 16 9 14 11 15 17 5 3 2 7 8 20 16 19 4 10 21 8 6 15 10 10
7 9 12 14 15 16 17 19 21 23 27 32 31 5 4 4 11 4 4 4 4 7 12 12 12 7 8 17 6 7 9 3 3 1 5 6 15 24 14 19 11 4 8 15 2 1 5
8 11 12 13 13 15 17 19 21 24 26 31 6 4 4 9 11 4 5 7 5 4 14 11 4 7 10 11 8 9 5 4 10 3 2 6 14 9 18 15 8 8 8 6 6 5 8
8 10 11 12 13 15 16 20 22 22 25 25 4 4 4 16 4 5 3 3 6 12 13 6 10 6 5 4 9 5 5 9 5 17 4 2 1 17 14 6 12 8 7 6 0 3 2
7 8 10 11 13 16 17 18 20 22 22 9 2 3 5 5 4 2 3 6 13 11 9 5 6 0 2 7 6 5 7 4 13 5 8 4 3 12 21 5 8 5 6 7 4 3 2
6 8 10 13 14 15 17 19 20 21 21 1 1 2 5 4 3 4 6 6 3 9 8 7 5 9 10 5 5 13 11 14 10 13 7 5 3 11 14 4 3 5 13 12 14 5 3
6 8 11 12 14 16 16 18 19 20 19 3 2 3 4 4 2 4 4 5 9 6 6 9 7 7 12 11 11 9 10 9 13 13 22 12 4 3 8 13 14 21 25 19 9 2 4
6 8 10 11 14 15 15 16 18 19 19 3 3 2 0 4 6 8 2 3 7 11 2 5 5 11 6 7 11 6 17 20 20 15 5 3 7 14 16 16 18 19 21 17 6 4 4
5 7 10 11 13 14 15 16 17 18 12 3 2 2 2 4 4 4 5 4 4 9 1 6 9 13 8 4 6 17 17 19 10 7 7 2 5 14 16 13 11 16 20 26 18 15 12
4 7 9 11 12 13 14 15 16 17 8 1 2 3 2 4 3 2 3 4 8 9 6 11 9 8 9 9 12 18 17 15 13 10 13 2 3 7 6 15 17 4 19 16 16 25 16
5 7 9 11 12 13 14 15 15 15 13 2 3 1 2 7 2 7 12 13 10 11 7 10 6 2 6 13 14 8 7 7 5 3 4 3 4 3 5 12 5 5 17 11 10 16 19
6 7 9 11 12 13 14 15 15 15 15 2 1 1 2 3 5 8 9 6 5 7 6 7 3 3 7 7 5 6 5 6 4 4 5 2 2 4 3 4 5 12 22 17 9 7 21
6 8 10 12 13 13 14 15 15 15 17 2 2 3 1 5 3 4 4 2 4 3 6 5 4 7 5 2 3 2 3 5 6 11 5 9 2 0 4 4 7 12 22 21 8 3 25
7 9 10 12 13 14 14 15 15 16 17 6 3 3 1 2 4 2 2 3 2 2 2 4 6 6 4 3 2 1 3 4 5 7 7 6 4 1 5 2 4 16 18 10 8 8 22
8 9 10 12 13 13 14 15 16 16 16 5 4 2 1 2 5 3 1 1 3 2 2 4 5 4 3 3 1 3 1 3 3 5 5 5 4 4 5 4 4 20 6 7 6 10 15
8 9 11 12 13 13 15 16 16 16 15 4 1 4 3 2 5 3 5 4 5 5 3 2 4 1 3 1 1 1 2 2 2 3 6 4 2 2 2 3 4 8 5 6 10 13 14
Wind_Direction
55 45 33 30 21 13 17 12 8 2 359 357 358 353 350 345 341 337 332 326 322 319 316 316 315 311 309 255 251 303 346 349 331 197 218 210 218 222 229 212 227 228 234 216 229 250 251
42 37 28 21 17 12 9 12 4 357 360 356 353 351 348 344 340 337 333 328 322 317 317 314 307 301 240 254 286 292 336 336 321 332 227 216 234 238 270 233 210 209 230 239 242 230 239
38 30 24 17 16 12 14 7 1 360 358 350 350 349 347 341 339 336 332 326 320 318 315 313 317 270 226 246 288 319 324 330 324 294 275 266 231 252 255 255 241 246 264 256 233 231 234
29 28 22 11 2 6 10 2 1 3 353 352 348 348 346 342 338 335 332 326 320 316 317 323 310 285 250 245 288 356 329 319 328 309 295 286 267 280 254 268 279 241 239 248 241 219 229
26 19 13 9 18 16 5 2 6 357 352 351 350 347 344 340 337 335 332 325 317 318 357 312 244 230 271 357 353 331 310 326 306 301 298 299 252 260 279 256 255 238 235 225 242 217 169
23 16 16 10 16 10 4 8 360 355 352 352 350 348 344 341 335 337 333 326 327 32 350 1 81 349 8 328 326 311 292 317 327 303 298 250 237 242 247 227 225 234 233 248 247 220 212
19 17 12 10 20 16 5 360 358 354 355 354 350 346 342 341 337 340 345 348 16 355 357 222 286 265 279 292 290 315 320 346 357 360 332 303 251 224 237 250 261 264 251 246 236 216 210
16 14 24 27 16 4 3 359 357 358 353 352 348 345 344 339 333 341 3 43 45 244 306 288 274 251 260 302 317 336 6 21 337 322 312 290 249 269 269 261 259 263 270 265 239 196 216
15 16 15 13 9 9 2 1 358 356 354 350 348 345 343 341 329 356 349 37 349 351 320 305 290 50 292 328 325 344 20 281 296 304 298 289 283 286 288 280 270 253 252 259 272 239 232
24 20 19 18 11 10 3 1 357 353 353 350 347 344 341 343 6 325 356 335 330 3 352 1 29 308 347 324 10 356 350 5 327 301 306 285 262 281 291 283 282 273 257 265 253 271 229
27 18 15 13 12 9 5 2 358 354 350 348 343 343 344 345 276 3 296 319 313 87 1 20 9 316 331 2 319 349 19 348 320 308 351 286 289 287 282 264 269 275 253 255 258 257 254
20 16 13 12 14 6 1 359 356 354 349 346 341 341 340 344 355 287 323 320 66 54 270 29 355 341 353 355 352 315 1 35 295 301 302 287 280 265 260 283 284 264 261 239 252 248 246
19 13 10 6 4 0 0 354 356 355 351 343 340 340 336 356 304 317 322 360 43 39 354 347 342 336 326 0 343 348 336 355 343 336 341 328 326 340 12 339 304 295 188 217 229 218 240
17 11 4 353 0 3 1 355 356 356 352 343 338 336 315 33 354 338 10 41 49 7 3 331 332 320 335 353 322 335 335 341 337 88 306 337 330 335 306 324 294 285 266 203 212 213 224
13 1 5 18 8 4 360 359 358 356 354 346 340 325 337 322 336 28 45 38 37 343 325 332 321 333 336 334 324 352 322 257 266 323 346 308 303 305 307 318 303 289 209 220 34 1 192
11 14 13 14 10 5 2 359 359 356 354 347 327 345 302 311 324 52 59 12 325 304 327 331 312 318 329 323 332 348 345 269 334 300 190 266 297 305 318 315 339 283 306 153 187 209 192
26 19 15 10 7 4 0 1 359 359 355 348 21 12 267 340 56 43 90 263 306 330 332 317 323 300 270 321 321 304 255 301 351 320 317 243 276 312 333 341 335 340 27 332 64 200 171
27 13 8 4 359 0 5 2 1 1 1 3 27 11 285 24 39 4 5 320 306 324 334 326 297 211 238 322 307 308 303 243 318 341 322 284 240 307 306 292 41 11 12 16 334 267 248
18 7 359 2 5 358 2 1 359 1 5 17 356 269 304 74 45 346 322 321 272 323 351 347 302 343 343 321 319 305 320 315 346 348 306 329 321 328 340 343 288 353 335 324 302 245 219
7 2 3 359 357 1 7 2 2 2 1 48 49 6 325 12 78 115 317 298 317 322 309 327 288 330 337 323 322 292 313 312 326 328 325 348 253 194 286 280 288 305 302 308 283 292 338
6 1 357 357 357 359 6 1 0 6 1 71 44 307 166 304 326 315 271 250 305 336 303 315 313 337 312 307 314 323 323 319 321 325 314 105 283 299 294 295 294 294 286 286 284 286 25
3 348 353 359 354 3 1 359 2 6 16 66 73 43 329 258 270 286 298 273 327 320 145 292 319 317 314 278 293 311 316 310 305 311 332 267 275 313 307 301 330 314 10 36 36 20 51
341 335 347 353 355 357 356 355 358 359 39 64 283 284 192 259 277 54 266 287 312 312 300 311 297 311 310 311 309 293 286 275 255 280 291 234 318 321 287 323 309 47 12 34 46 35 23
328 340 344 345 350 351 349 352 352 353 357 153 231 214 265 283 218 275 297 303 303 313 290 302 306 340 284 313 311 288 286 281 295 3 49 346 328 284 293 317 54 55 18 358 52 46 33
329 336 335 335 349 344 345 345 345 345 340 132 243 222 276 278 256 290 303 320 275 281 287 272 305 279 305 333 346 340 332 352 13 10 355 44 3 310 323 315 270 15 349 338 346 48 22
325 326 331 340 340 338 342 341 342 338 331 343 233 189 213 306 263 318 285 245 292 291 327 270 326 305 8 0 11 354 337 335 338 331 353 339 326 154 335 320 28 356 333 341 143 108 9
311 320 332 336 334 338 340 339 334 334 337 342 260 208 209 250 269 124 251 244 300 353 251 306 322 336 32 23 328 332 320 353 345 328 333 332 355 33 299 302 88 354 341 329 45 316 332
306 318 329 330 333 336 334 332 333 336 338 20 275 335 146 225 284 257 251 255 320 91 311 282 3 351 10 30 31 286 52 278 358 285 337 10 337 350 330 5 354 0 7 45 305 305 320
303 321 326 330 330 331 329 330 334 335 340 17 310 356 340 229 243 276 250 235 198 217 273 286 202 212 241 182 232 252 305 350 173 294 4 58 1 289 38 294 51 0 58 3 339 330 325